星链-35636(STARLINK-35636)

导读 | 豆包AI

STARLINK-35636是美国SpaceX公司星链(Starlink)星座的一员,于2025年10月25日发射入轨。星链项目旨在构建全球低轨卫星互联网,为传统基础设施覆盖不足的偏远地区提供高速、低延迟宽带服务。作为量产型低轨通信卫星,它采用平板设计,搭载Ku/Ka波段通信载荷与霍尔推进器,运行在近地轨道,预期服役寿命5-7年,退役后会主动离轨再入大气层销毁,服务全球网络覆盖。

基本信息
目录编号:
66160
目录名称:
STARLINK-35636
国际标识:
2025-240Q
轨道中心:
EARTH
卫星名称:
星链-35636
卫星全名:
星链-35636(STARLINK-35636)
卫星状态:
在轨 (已飞行212 天)
发射日期:
2025-10-25 UTC
国别 :
美国 (US)
星等 :
--
轨道信息
数据来源 国际轨道数据
星历时间: 2026-05-25T11:58:08+0800
8小时前
查看轨道信息
半长轴: 6853.314km
偏心率: 0.0000859
轨道倾角: 53.160°
近地点辐角 109.297°
升交点赤经 67.846°
平近点角 250.812°
近地点: 474.588km
远地点: 475.766km
周期: 94.105分钟
每日圈数: 15.302129
详细信息
固有亮度:
5
最大亮度:
2.5
卫星平台:
Starlink V1.0
覆盖范围:
全球
运营商:
太空探索技术公司
运营商所在国:
美国
制造商(研发单位):
太空探索技术公司
制造商所在国:
美国
使用方式:
暂无
卫星简介
Starlink 计划是 SpaceX 推出的全球卫星互联网项目,通过发射低轨道卫星,为全球尤其是偏远地区提供高速、低延迟的互联网服务。自 2019 年起,Starlink 已部署数千颗卫星,旨在缩小全球数字鸿沟,推动互联网普及。该项目还为军事、航空等行业提供通信支持,带来广泛经济效益。
2D轨道图
3D轨道图
轨道高度分析图
轨道倾角分析图
轨道综合分析图
查看轨道综合分析图